(°C)
10°
(°C)
WSW
WSW
WSW
S
SSO
SO
SSO
(km/h)
8-24
8-19
5-18
4-18
4-18
4-18
4-17
(mm)
0
0
0
0
0
0
0
(%)
0
5
10
9
16
31
40

Sonnenhöhe

/ 19.7°
sun-icon
UV 2
07:52
17:43
Abnehmender Mond (209°)
20:07
09:40

METAR für Ioannina (LGIO)

Zeit Bedingungen Temperatur/
Taupunkt
Wind Sichtweite Wetter Wolken Druck Änderung Roh
10°C / -2°C variable 1kt - 1023 - LGIO 201250Z AUTO VRB01KT //// // ////// 10/M02 Q1023 RE//
VFR 7°C / -3°C 100º 2kt >10km - Broken Clouds 4000ft 1024 - LGIO 201220Z 10002KT 9999 BKN040 07/M03 Q1024
VFR 5°C / -4°C 320º 1kt >10km - Broken Clouds 4000ft 1025 - LGIO 201150Z 32001KT 9999 BKN040 05/M04 Q1025
VFR 4°C / -3°C 20º 1kt >10km - Broken Clouds 4000ft 1025 - LGIO 201120Z 02001KT 9999 BKN040 04/M03 Q1025
VFR 3°C / -4°C 80º 2kt >10km - Scattered Clouds 3500ft
Broken Clouds 5000ft
1026 - LGIO 201050Z 08002KT 9999 SCT035 BKN050 03/M04 Q1026
VFR 2°C / -3°C 130º 3kt >10km - Scattered Clouds 3500ft
Broken Clouds 5000ft
1026 - LGIO 201020Z 13003KT 9999 SCT035 BKN050 02/M03 Q1026
VFR 1°C / -4°C 270º 1kt >10km - Scattered Clouds 3500ft
Broken Clouds 5000ft
1027 - LGIO 200950Z 27001KT 9999 SCT035 BKN050 01/M04 Q1027
VFR 0°C / -4°C 320º 1kt >10km - Scattered Clouds 3500ft
Overcast 5000ft
1027 - LGIO 200920Z 32001KT 9999 SCT035 OVC050 00/M04 Q1027
VFR 0°C / -4°C 290º 1kt >10km - Scattered Clouds 3500ft
Overcast 5000ft
1027 - LGIO 200850Z 29001KT 9999 SCT035 OVC050 M00/M04 Q1027
VFR -1°C / -4°C 340º 1kt >10km - Scattered Clouds 3500ft
Broken Clouds 5000ft
1027 - LGIO 200820Z 34001KT 9999 SCT035 BKN050 M01/M04 Q1027
VFR -2°C / -4°C 350º 2kt >10km - Few Clouds 3500ft
Broken Clouds 5000ft
1027 - LGIO 200750Z 35002KT 9999 FEW035 BKN050 M02/M04 Q1027
VFR -2°C / -4°C 310º 2kt >10km - Few Clouds 3500ft
Broken Clouds 5000ft
1027 - LGIO 200720Z 31002KT 9999 FEW035 BKN050 M02/M04 Q1027
VFR -3°C / -4°C 340º 3kt >10km - Broken Clouds 4500ft 1027 - LGIO 200650Z 34003KT 9999 BKN045 M03/M04 Q1027
VFR -3°C / -5°C 300º 1kt >10km - Broken Clouds 4000ft 1028 - LGIO 200620Z 30001KT 9999 BKN040 M03/M05 Q1028
-4°C / -6°C variable 1kt - 1028 - LGIO 200550Z AUTO VRB01KT //// // ////// M04/M06 Q1028 RE//
-6°C / -7°C variable 1kt - 1028 - LGIO 200520Z AUTO VRB01KT //// // ////// M06/M07 Q1028 RE//
-6°C / -7°C variable 0kt - 1028 - LGIO 200450Z AUTO 00000KT //// // ////// M06/M07 Q1028 RE//
-6°C / -7°C variable 3kt - 1028 - LGIO 200420Z AUTO VRB03KT //// // ////// M06/M07 Q1028 RE//
-6°C / -7°C variable 0kt - 1028 - LGIO 200350Z AUTO 00000KT //// // ////// M06/M07 Q1028 RE//
-6°C / -8°C variable 1kt - 1028 - LGIO 200320Z AUTO VRB01KT //// // ////// M06/M08 Q1028 RE//
-5°C / -6°C variable 2kt - 1028 - LGIO 200250Z AUTO VRB02KT //// // ////// M05/M06 Q1028 RE//
-4°C / -7°C variable 1kt - 1028 - LGIO 200220Z AUTO VRB01KT //// // ////// M04/M07 Q1028 RE//
-6°C / -7°C variable 1kt - 1029 - LGIO 200150Z AUTO VRB01KT //// // ////// M06/M07 Q1029 RE//
-5°C / -7°C variable 1kt - 1029 - LGIO 200120Z AUTO VRB01KT //// // ////// M05/M07 Q1029 RE//

10°C / -2°C

[Mehr]
Wind variable 1kt
Sichtweite
Wetter -
Wolken
Druck 1023
Änderung -
Roh LGIO 201250Z AUTO VRB01KT //// // ////// 10/M02 Q1023 RE//

VFR

7°C / -3°C

[Mehr]
Wind 100º 2kt
Sichtweite >10km
Wetter -
Wolken Broken Clouds 4000ft
Druck 1024
Änderung -
Roh LGIO 201220Z 10002KT 9999 BKN040 07/M03 Q1024

VFR

5°C / -4°C

[Mehr]
Wind 320º 1kt
Sichtweite >10km
Wetter -
Wolken Broken Clouds 4000ft
Druck 1025
Änderung -
Roh LGIO 201150Z 32001KT 9999 BKN040 05/M04 Q1025

VFR

4°C / -3°C

[Mehr]
Wind 20º 1kt
Sichtweite >10km
Wetter -
Wolken Broken Clouds 4000ft
Druck 1025
Änderung -
Roh LGIO 201120Z 02001KT 9999 BKN040 04/M03 Q1025

VFR

3°C / -4°C

[Mehr]
Wind 80º 2kt
Sichtweite >10km
Wetter -
Wolken Scattered Clouds 3500ft
Broken Clouds 5000ft
Druck 1026
Änderung -
Roh LGIO 201050Z 08002KT 9999 SCT035 BKN050 03/M04 Q1026

VFR

2°C / -3°C

[Mehr]
Wind 130º 3kt
Sichtweite >10km
Wetter -
Wolken Scattered Clouds 3500ft
Broken Clouds 5000ft
Druck 1026
Änderung -
Roh LGIO 201020Z 13003KT 9999 SCT035 BKN050 02/M03 Q1026

VFR

1°C / -4°C

[Mehr]
Wind 270º 1kt
Sichtweite >10km
Wetter -
Wolken Scattered Clouds 3500ft
Broken Clouds 5000ft
Druck 1027
Änderung -
Roh LGIO 200950Z 27001KT 9999 SCT035 BKN050 01/M04 Q1027

VFR

0°C / -4°C

[Mehr]
Wind 320º 1kt
Sichtweite >10km
Wetter -
Wolken Scattered Clouds 3500ft
Overcast 5000ft
Druck 1027
Änderung -
Roh LGIO 200920Z 32001KT 9999 SCT035 OVC050 00/M04 Q1027

VFR

0°C / -4°C

[Mehr]
Wind 290º 1kt
Sichtweite >10km
Wetter -
Wolken Scattered Clouds 3500ft
Overcast 5000ft
Druck 1027
Änderung -
Roh LGIO 200850Z 29001KT 9999 SCT035 OVC050 M00/M04 Q1027

VFR

-1°C / -4°C

[Mehr]
Wind 340º 1kt
Sichtweite >10km
Wetter -
Wolken Scattered Clouds 3500ft
Broken Clouds 5000ft
Druck 1027
Änderung -
Roh LGIO 200820Z 34001KT 9999 SCT035 BKN050 M01/M04 Q1027

VFR

-2°C / -4°C

[Mehr]
Wind 350º 2kt
Sichtweite >10km
Wetter -
Wolken Few Clouds 3500ft
Broken Clouds 5000ft
Druck 1027
Änderung -
Roh LGIO 200750Z 35002KT 9999 FEW035 BKN050 M02/M04 Q1027

VFR

-2°C / -4°C

[Mehr]
Wind 310º 2kt
Sichtweite >10km
Wetter -
Wolken Few Clouds 3500ft
Broken Clouds 5000ft
Druck 1027
Änderung -
Roh LGIO 200720Z 31002KT 9999 FEW035 BKN050 M02/M04 Q1027

VFR

-3°C / -4°C

[Mehr]
Wind 340º 3kt
Sichtweite >10km
Wetter -
Wolken Broken Clouds 4500ft
Druck 1027
Änderung -
Roh LGIO 200650Z 34003KT 9999 BKN045 M03/M04 Q1027

VFR

-3°C / -5°C

[Mehr]
Wind 300º 1kt
Sichtweite >10km
Wetter -
Wolken Broken Clouds 4000ft
Druck 1028
Änderung -
Roh LGIO 200620Z 30001KT 9999 BKN040 M03/M05 Q1028

-4°C / -6°C

[Mehr]
Wind variable 1kt
Sichtweite
Wetter -
Wolken
Druck 1028
Änderung -
Roh LGIO 200550Z AUTO VRB01KT //// // ////// M04/M06 Q1028 RE//

-6°C / -7°C

[Mehr]
Wind variable 1kt
Sichtweite
Wetter -
Wolken
Druck 1028
Änderung -
Roh LGIO 200520Z AUTO VRB01KT //// // ////// M06/M07 Q1028 RE//

-6°C / -7°C

[Mehr]
Wind variable 0kt
Sichtweite
Wetter -
Wolken
Druck 1028
Änderung -
Roh LGIO 200450Z AUTO 00000KT //// // ////// M06/M07 Q1028 RE//

-6°C / -7°C

[Mehr]
Wind variable 3kt
Sichtweite
Wetter -
Wolken
Druck 1028
Änderung -
Roh LGIO 200420Z AUTO VRB03KT //// // ////// M06/M07 Q1028 RE//

-6°C / -7°C

[Mehr]
Wind variable 0kt
Sichtweite
Wetter -
Wolken
Druck 1028
Änderung -
Roh LGIO 200350Z AUTO 00000KT //// // ////// M06/M07 Q1028 RE//

-6°C / -8°C

[Mehr]
Wind variable 1kt
Sichtweite
Wetter -
Wolken
Druck 1028
Änderung -
Roh LGIO 200320Z AUTO VRB01KT //// // ////// M06/M08 Q1028 RE//

-5°C / -6°C

[Mehr]
Wind variable 2kt
Sichtweite
Wetter -
Wolken
Druck 1028
Änderung -
Roh LGIO 200250Z AUTO VRB02KT //// // ////// M05/M06 Q1028 RE//

-4°C / -7°C

[Mehr]
Wind variable 1kt
Sichtweite
Wetter -
Wolken
Druck 1028
Änderung -
Roh LGIO 200220Z AUTO VRB01KT //// // ////// M04/M07 Q1028 RE//

-6°C / -7°C

[Mehr]
Wind variable 1kt
Sichtweite
Wetter -
Wolken
Druck 1029
Änderung -
Roh LGIO 200150Z AUTO VRB01KT //// // ////// M06/M07 Q1029 RE//

-5°C / -7°C

[Mehr]
Wind variable 1kt
Sichtweite
Wetter -
Wolken
Druck 1029
Änderung -
Roh LGIO 200120Z AUTO VRB01KT //// // ////// M05/M07 Q1029 RE//

TAF für Ioannina (LGIO)

From till


From till Wind 230º 5kt. Visibility 10km or more. Few Clouds 1000ft. Broken Clouds 3500ft.
Becoming from till Wind 230º 5kt. Visibility 10km or more. Few Clouds 1000ft. Broken Clouds 3000ft. Broken Clouds 8000ft.
With 40% probability, Temporarly from till Visibility 6000m. Rain . Scattered Clouds 1000ft. Broken Clouds 2500ft. Overcast 7000ft.

Roh: TAF LGIO 201100Z 2012/2021 23005KT 9999 FEW010 BKN035 BECMG 2012/2014 FEW010 BKN030 BKN080 PROB40 TEMPO 2015/2021 6000 RA SCT010 BKN025 OVC070

Radar- und Niederschlags-Nowcast für Ioannina

Nieselregen
Leicht
Moderat
Stark
Sehr schwer
Hagel

Die Ortsmarkierung zeigt auf Ioannina. Diese Animation zeigt das Niederschlagsradar der letzten Stunde, sowie eine 1h Vorhersage. Nieselregen und leichter Schneefall können für das Radar unsichtbar sein. Die Niederschlagsintensität ist farbcodiert von Hellblau bis Orange.

Aktuelle Satelliten- und Regenbilder für Ioannina, Griechenland

Die Standortmarkierung ist platziert auf Ioannina. [Mehr]

Das Echtzeit-Satellitenbild kombiniert sichtbares Licht während des Tages mit Infrarotstrahlung während der Nacht. Nachts ist das Bild nicht dunkel, da Infrarotstrahlung Temperaturunterschiede erkennen kann. Leider sind niedrige Wolken und Nebel nur schwer von den Bodentemperaturen zu unterscheiden und können daher nachts fast unsichtbar sein. Meteosat-Satellitenbilder für Europa werden alle 5 Minuten in Echtzeit aktualisiert. Die Bilder GOES-16 / GOES-17 (Nord- und Südamerika) und Himawari (Asien) werden alle 10 Minuten aktualisiert.

Niederschläge werden von Radar und Satelliten berechnet. Nachts sind die Niederschlagsberechnungen durch die Satelliten weniger genau als tagsüber. Orangene Kreuze markieren Stellen, an denen Blitze aufgenommen wurden (über Europa).

Copyright 2022 EUMETSAT / meteoblue. Blitzdaten zur Verfügung gestellt von nowcast.